ECMWFNIL_con_mucape_000.txt.gz
CAPE
1573 1107 883 1352 1450 948 695 897 805 124 320 481 630 654 636 782 893 884 828 992 870 905 1004 968 938 1079 1142 1114 1160 1250 1370 1308 1341 1619 1528 1412 1326 840 687 734 750 1042
853 687 912 1248 1539 1001 718 310 649 470 296 322 659 610 846 853 755 710 740 729 756 663 750 677 821 1020 1168 997 1212 1212 1396 1454 1337 1095 1289 1301 1460 1052 486 433 468 634
630 610 800 533 626 732 293 314 268 332 552 594 471 461 566 595 792 697 779 683 658 702 749 858 769 958 1163 1293 1302 1276 1104 1209 1402 1183 1498 1222 831 607 513 350 603 473
1144 834 476 330 374 145 244 340 591 448 768 1466 752 849 539 465 450 606 761 779 783 903 853 718 846 909 1057 1117 1136 1096 1058 1152 1052 1141 1079 1129 994 884 765 783 694 524
1257 814 573 336 492 484 658 361 157 140 332 509 402 622 943 1142 1014 746 682 817 905 648 630 794 902 924 1152 1139 1134 1284 1256 1378 1222 1058 1198 1386 1658 971 743 946 581 579
1001 750 934 924 585 618 466 299 529 294 202 225 816 656 604 728 781 668 641 577 310 340 382 548 600 775 908 996 1410 1646 1867 1854 1500 1298 858 1016 1047 977 890 738 750 650
1026 874 565 566 480 583 628 522 575 557 397 515 541 738 642 672 695 820 833 707 672 792 588 732 823 855 1082 1197 1241 1444 1590 1766 1327 1143 1136 1218 1373 1109 921 900 678 452
958 870 984 1032 678 810 822 705 478 888 807 733 542 664 832 618 644 564 562 760 690 726 963 1018 1045 1128 757 745 851 1000 1244 961 902 883 1078 1114 1197 1061 796 590 472 452
1163 1135 953 893 821 699 332 308 340 627 512 466 617 219 692 958 922 744 992 863 824 936 1106 1152 1296 1188 924 885 933 1083 1126 1119 982 722 1332 1344 1035 862 712 553 464 440
1118 1148 733 404 284 489 241 152 103 122 199 668 720 323 250 340 288 336 414 662 804 710 784 1077 1329 1619 1039 894 1061 991 1056 1050 932 1182 1358 1286 1116 944 622 534 467 458
847 771 699 689 446 118 129 44 14 6 28 2 6 5 114 234 734 837 739 644 663 764 933 890 1337 1706 1395 1050 1178 1410 1052 891 1050 792 672 1132 1430 1138 673 681 542 451
939 722 632 640 626 490 287 231 118 104 14 1 79 154 588 250 165 197 264 583 829 778 670 827 960 1986 1881 1827 1959 1009 965 948 1328 1506 1384 1222 1210 1302 917 718 612 575
1024 994 843 555 899 764 549 213 121 40 24 186 0 0 6 44 25 95 468 598 632 732 766 833 826 884 1558 2149 1936 1724 1751 1991 1659 1189 1375 1497 1340 1112 1006 690 640 640
996 1149 999 1028 902 1052 876 759 538 562 815 879 608 441 180 267 117 170 208 182 429 537 613 555 717 1010 2066 2167 1185 905 1024 764 715 694 771 1190 1526 1510 1130 784 717 703
1372 1124 1200 1485 1190 1237 1060 917 884 1051 1146 1110 1088 922 655 450 388 321 383 509 463 496 554 846 983 1137 1344 1008 819 973 1406 904 629 490 649 1350 1395 1181 948 787 789 807
1562 1225 1356 1268 1424 1217 1288 1288 1202 1286 1014 1116 1224 1088 1208 1095 1118 1028 354 148 318 702 971 873 809 736 736 543 615 1175 1390 1325 947 908 1020 1158 1260 1202 968 729 664 645
1602 1555 1437 1548 1516 1123 1038 1064 1300 1318 1358 1424 1594 1496 1448 1431 950 540 188 113 225 174 258 488 315 351 52 140 431 408 1117 1581 1144 979 916 768 661 632 660 730 774 766
1659 1730 1777 1738 1632 1619 1538 1486 1374 1434 1517 1642 1701 1456 1727 1527 988 845 617 519 244 278 565 492 692 182 0 44 198 300 494 1191 1310 752 565 552 521 516 558 710 786 1041
1878 1890 1902 1865 1739 1672 1726 1642 1520 1344 1515 1640 1620 1852 1598 1281 1184 708 600 829 942 1275 928 1047 922 235 85 134 142 349 558 802 1242 1299 1092 1045 1090 944 926 976 1196 1136
2015 1738 1842 1764 1910 1747 1616 1648 1685 1633 1766 1388 1396 1614 1261 906 903 827 844 901 985 1712 1758 1203 992 343 2 28 144 429 610 676 1154 1252 1304 1448 1479 1270 1003 1302 1732 953
2100 2003 1683 1867 1868 1718 1541 1563 1813 1796 1845 1770 1316 1063 1097 1298 1061 992 1153 760 1144 1484 1502 1238 100 599 0 186 197 136 0 16 684 1113 1346 1671 1713 1500 1584 1583 1192 1164
2064 1970 1816 1692 1805 1753 1608 1699 2052 2016 1724 2362 1936 1462 984 730 704 638 561 631 942 1312 908 913 449 0 208 246 130 72 0 230 864 1110 1401 1447 1311 1390 1400 1734 1652 1299
1736 1745 1756 1670 1727 1710 1551 1268 1308 1290 1515 1337 1080 814 788 970 1034 830 630 707 686 973 1392 1090 912 806 0 0 144 0 4 527 1046 1113 1305 1405 1632 1282 1091 1315 1492 1250
1542 1470 1532 1654 1712 1511 1508 1636 1575 1649 1823 2227 1259 877 904 840 650 752 695 1122 629 650 696 918 568 586 0 0 0 0 78 443 1097 1550 1573 1602 1353 1250 1524 1168 1138 1642
1684 1638 1612 1696 1716 1743 1318 917 1014 1687 2189 978 833 1050 979 1011 732 509 569 314 214 166 224 710 444 249 197 375 412 352 194 770 1443 1756 1570 1411 1692 1608 1165 754 841 830
1759 2090 1856 1511 1506 1179 1264 1782 1293 2813 917 1096 994 474 358 589 571 179 722 387 356 258 144 259 312 433 1302 510 387 304 0 335 1588 1604 1310 1324 1396 1300 1212 1072 1310 821

ECMWFNIL_con_mucape_003.txt.gz
CAPE
2 194 200 7 308 55 88 650 266 20 115 80 53 157 102 347 197 207 470 666 518 292 441 514 616 531 836 853 883 1022 979 868 976 990 1000 626 775 730 590 455 268 486
75 219 720 644 556 482 18 0 138 0 133 32 15 44 193 350 336 382 476 255 408 278 281 296 350 485 549 723 749 764 752 896 922 1344 839 692 1000 822 581 261 241 284
258 182 220 86 273 32 0 1 219 0 0 0 16 250 214 246 38 260 283 158 87 179 325 340 433 432 534 663 660 841 1011 884 890 1076 1220 950 859 650 364 472 344 138
234 50 0 1 88 17 46 216 0 76 22 30 46 9 73 224 118 2 66 1098 492 318 426 561 339 226 289 358 513 724 759 658 671 904 834 1020 943 716 652 528 265 182
102 164 10 19 92 77 1 0 1 35 9 60 228 190 108 78 140 371 344 239 354 477 368 251 303 454 605 685 831 774 787 915 1034 982 568 502 564 911 890 508 261 211
133 115 55 92 95 114 10 0 0 0 4 65 18 375 356 429 431 360 323 209 223 95 20 71 162 236 424 430 489 772 840 1065 1267 1152 843 734 822 905 850 632 379 312
352 104 46 7 152 142 4 0 0 56 50 16 247 120 119 140 154 171 194 242 205 210 161 169 338 459 493 656 592 441 666 1269 1194 1089 985 782 851 1016 845 586 533 515
259 181 123 74 64 47 124 36 114 200 119 161 36 30 234 246 130 192 279 176 153 216 301 312 271 311 353 343 413 504 559 830 832 672 664 557 590 779 892 758 528 171
174 109 122 53 93 107 68 108 176 112 144 126 152 202 263 170 222 203 138 242 390 112 0 40 274 396 504 638 656 430 356 658 846 823 664 650 782 864 832 414 210 216
371 256 210 260 115 243 197 80 86 31 80 133 146 158 122 236 280 280 237 51 0 0 16 116 110 162 470 703 581 320 415 330 244 363 626 908 849 645 671 591 468 381
448 468 292 338 152 186 92 13 0 0 229 158 108 94 43 12 52 4 0 0 11 49 94 136 218 326 672 768 614 635 479 277 127 110 387 402 275 366 692 742 587 473
308 370 183 132 56 12 10 7 0 0 0 0 0 0 0 0 0 0 92 0 0 0 0 0 59 214 648 860 918 851 690 301 376 803 1016 862 738 696 683 790 827 585
323 118 69 84 120 37 5 38 26 0 0 2 0 0 0 0 0 0 19 0 0 21 78 133 376 172 66 852 859 472 294 292 294 453 508 437 504 718 901 920 884 788
569 364 104 88 174 216 148 46 2 4 46 147 99 86 34 8 4 0 0 45 81 43 23 76 18 651 1036 908 636 381 344 435 416 355 313 240 203 270 476 636 718 758
712 470 316 246 504 479 338 190 94 100 117 206 358 234 144 48 43 39 28 62 44 7 4 4 407 374 698 390 192 347 403 536 594 551 467 405 324 250 299 555 787 808
806 534 335 319 347 305 180 143 134 173 273 234 223 202 220 239 142 202 285 138 14 0 6 252 368 203 372 286 504 590 519 681 823 749 632 492 341 347 506 484 438 387
788 548 474 455 410 227 243 166 126 254 292 303 379 463 516 502 526 310 226 44 0 21 1 172 110 291 192 18 21 106 275 308 459 632 732 718 465 248 46 49 112 159
670 553 558 479 442 334 350 306 340 329 453 506 529 571 696 628 541 426 339 223 101 2 0 260 90 90 40 0 0 2 26 201 221 401 654 696 457 328 363 434 520 588
554 436 432 402 344 352 285 282 276 466 560 599 608 672 787 861 713 529 471 446 166 0 0 110 92 144 99 5 0 2 4 2 53 330 473 565 619 642 694 794 821 703
395 417 360 402 440 404 399 383 427 476 416 426 589 751 941 892 703 607 517 363 74 20 61 263 376 472 200 81 0 29 33 6 122 180 278 355 483 674 896 974 800 724
552 576 506 524 526 517 552 508 578 560 555 624 668 667 826 851 758 543 341 322 300 348 440 708 834 642 310 57 70 106 101 0 0 1 40 155 335 634 975 1012 734 752
652 612 747 722 746 701 628 609 575 499 558 739 950 919 802 670 574 543 492 450 237 333 706 745 750 649 226 164 208 165 24 0 0 0 39 241 533 814 924 870 836 844
751 710 716 826 796 814 744 642 527 478 610 808 1004 998 904 800 602 363 304 306 167 494 643 687 378 252 272 269 172 0 0 0 0 124 342 490 586 674 801 874 849 769
777 766 718 664 704 783 791 670 602 692 732 739 620 576 493 305 202 272 421 419 194 72 350 325 266 359 317 189 62 0 0 0 0 26 260 576 885 1091 1128 1022 931 1038
868 811 726 652 581 618 687 729 698 696 696 653 566 445 372 345 456 523 421 369 102 1 41 2 41 1 36 54 0 24 54 18 98 392 782 967 998 924 904 916 902 755
842 824 768 677 640 619 627 650 712 761 914 1029 934 727 583 525 494 373 237 176 222 144 70 34 5 3 218 0 0 0 0 0 81 547 708 807 730 716 719 799 922 844

ECMWFNIL_con_mucape_006.txt.gz
CAPE
0 0 0 0 0 11 116 0 0 0 0 0 0 0 4 2 29 0 4 217 224 43 106 121 301 373 528 475 475 687 739 606 622 640 816 862 568 542 637 497 357 616
0 0 58 0 60 72 0 0 0 0 0 0 0 0 0 37 8 28 38 165 254 38 7 14 52 58 25 152 236 288 259 393 564 832 889 915 659 650 753 563 172 329
0 0 0 0 0 0 0 0 0 0 0 0 0 0 0 58 2 0 0 6 1 0 0 0 0 38 100 115 160 240 361 400 537 606 827 885 816 886 846 522 280 22
0 0 0 0 0 0 0 0 0 0 0 0 0 0 8 6 2 0 1 488 62 10 12 26 70 47 11 4 13 48 139 234 389 436 619 880 806 610 469 488 480 284
0 0 0 0 0 0 0 0 0 0 0 0 0 0 19 9 8 0 0 3 56 12 18 85 19 5 38 101 164 218 226 308 253 537 648 691 548 568 532 622 573 417
0 0 0 0 0 0 0 0 0 0 0 0 0 0 1 0 0 0 8 1 0 4 2 0 0 0 3 26 45 58 112 241 283 568 748 738 637 553 697 796 710 538
0 0 0 0 0 0 0 0 0 0 0 0 0 0 12 6 3 12 0 0 0 1 1 0 0 0 1 42 70 99 11 35 221 638 855 811 707 677 676 768 673 597
275 0 0 0 0 0 0 0 0 0 0 0 0 0 0 0 0 0 0 0 0 4 4 6 10 20 21 17 18 0 0 40 295 452 596 701 722 744 688 673 699 672
545 516 372 0 0 0 0 0 0 0 0 0 0 0 0 0 0 0 0 0 0 0 1 8 5 0 0 0 0 6 168 240 243 357 430 471 467 457 446 531 685 751
687 548 423 176 0 0 0 0 0 0 0 0 0 0 0 0 0 0 0 0 0 2 0 0 0 0 0 0 6 32 141 262 265 209 158 136 140 248 436 618 696 667
747 654 543 425 58 0 0 0 0 0 3 4 0 0 0 0 11 19 0 0 0 0 0 0 0 0 0 0 6 160 360 357 332 347 301 138 125 167 224 260 287 345
853 757 611 350 0 0 1 1 0 0 0 3 4 0 0 0 0 0 0 0 0 0 0 0 0 0 0 0 60 393 429 447 522 446 154 184 444 603 593 523 424 452
851 753 653 88 5 1 8 8 3 0 0 0 4 0 0 0 0 0 0 0 0 0 0 0 0 0 0 63 310 288 357 453 344 40 156 351 513 548 462 357 397 540
878 829 90 10 12 7 7 6 2 0 0 0 0 0 0 0 0 0 0 0 0 0 0 0 0 0 0 12 139 303 364 335 6 18 209 238 221 212 170 155 234 352
716 309 12 30 78 16 6 1 0 0 0 0 0 0 0 0 0 0 0 0 0 0 0 0 0 2 69 197 236 308 358 233 38 52 62 63 156 247 246 204 28 63
266 16 31 20 60 26 9 2 0 0 0 0 0 0 0 0 0 0 0 0 0 0 0 0 0 6 222 199 166 146 78 118 151 347 414 442 457 460 422 400 340 69
160 220 334 27 32 40 25 18 7 0 0 0 0 0 0 6 19 0 0 10 25 147 0 0 20 25 67 19 36 146 226 198 276 354 358 346 334 361 423 497 370 277
563 372 542 496 440 370 92 52 21 1 0 0 0 0 5 18 40 66 55 149 168 149 0 0 0 15 2 0 3 8 167 204 27 24 65 112 152 165 173 204 267 372
666 454 665 656 548 563 81 27 0 0 0 0 0 5 24 75 100 110 261 327 350 386 385 0 0 0 0 0 0 0 0 5 0 0 2 31 50 57 80 112 178 363
574 703 894 768 647 683 414 34 6 6 0 0 13 58 117 122 152 334 368 384 422 449 454 325 0 0 0 0 0 0 0 0 0 0 2 0 1 6 22 64 163 372
428 942 1152 976 849 782 541 64 46 26 18 20 43 78 136 203 344 360 396 445 497 533 520 437 295 36 0 0 0 62 0 0 0 0 0 0 0 0 23 116 284 506
954 1290 1344 1098 928 825 564 323 54 45 49 38 82 43 67 109 144 183 350 459 538 592 615 475 315 245 272 344 240 0 0 0 0 0 0 0 0 0 141 385 582 663
1301 1331 1163 1038 918 783 552 452 421 347 59 61 114 101 106 129 150 175 396 469 561 492 382 232 241 408 509 447 0 0 0 0 0 0 0 0 0 39 522 676 678 634
849 826 828 868 772 635 484 408 268 88 106 176 130 156 196 236 387 468 487 500 454 153 50 89 311 264 207 0 0 158 0 0 0 0 0 0 194 568 532 388 310 689
782 832 848 756 634 483 165 142 113 132 156 146 154 148 170 58 360 333 314 230 40 8 267 180 142 95 0 136 137 0 0 0 0 0 0 223 394 184 11 19 4 46
677 787 814 750 635 479 206 198 207 190 154 107 334 386 234 88 353 346 112 119 0 0 0 0 0 0 0 0 0 0 0 0 0 0 108 60 0 2 0 0 0 0

ECMWFNIL_con_mucape_009.txt.gz
CAPE
0 0 0 0 0 0 0 0 0 0 0 0 0 0 0 0 0 0 0 1 36 0 0 0 52 177 363 257 168 289 305 234 252 243 262 390 502 366 129 107 7 176
0 0 8 0 0 3 0 0 0 0 0 0 0 0 0 0 0 0 0 2 180 39 0 0 7 8 0 0 0 6 2 25 20 271 278 353 430 417 285 23 8 0
464 0 0 0 0 0 0 0 0 0 0 0 0 0 0 0 0 0 0 0 13 22 0 0 0 0 0 0 0 0 27 2 2 0 196 172 338 385 409 398 414 216
506 0 0 0 0 0 0 0 0 0 0 0 0 0 0 0 0 0 0 488 0 0 0 0 0 0 0 0 0 0 0 0 0 0 23 90 277 367 442 474 378 227
412 0 0 0 0 0 0 0 0 0 0 0 0 0 0 0 0 0 0 0 0 0 0 0 0 0 0 0 0 0 0 5 0 0 4 15 227 326 436 434 323 254
292 0 0 0 0 0 0 0 0 0 0 0 0 0 0 0 0 0 0 0 0 0 0 0 0 0 0 0 0 0 0 0 0 1 8 148 201 298 418 432 382 324
498 0 0 0 38 43 56 55 0 0 0 0 0 0 0 0 0 0 0 0 0 0 0 0 0 0 0 0 0 0 0 0 0 0 4 12 190 306 386 440 458 442
624 0 138 178 208 242 303 274 187 0 0 0 0 0 0 0 0 0 0 0 0 0 0 0 0 0 0 0 0 0 0 0 0 0 2 15 164 209 260 339 456 540
629 105 204 268 321 420 388 348 324 324 0 0 0 0 0 0 0 0 0 0 0 0 0 0 0 0 0 0 0 0 0 0 0 0 4 8 8 12 122 250 338 400
606 0 63 293 392 412 172 0 271 0 0 0 0 0 0 0 0 0 0 0 0 0 0 0 0 0 0 0 0 0 0 0 0 0 0 0 1 5 109 40 48 138
719 141 259 380 399 302 218 121 154 0 0 0 0 0 0 0 0 0 0 0 0 0 0 0 0 0 0 0 0 0 0 0 0 0 0 0 0 167 5 8 60 104
927 377 64 594 425 0 90 0 0 0 0 0 0 0 0 0 0 0 0 0 0 0 0 0 0 0 0 0 0 0 0 0 0 0 0 74 220 147 12 22 173 244
1092 625 626 490 240 115 0 0 0 0 0 0 0 0 0 0 0 0 0 0 0 0 0 0 0 0 0 0 0 0 0 0 0 0 11 197 136 70 97 224 308 314
1051 751 880 564 324 187 0 0 0 0 0 0 0 0 0 0 0 0 0 0 0 0 0 0 0 0 0 0 0 0 0 0 0 0 0 0 0 55 101 112 100 90
1218 1096 714 360 337 51 0 0 0 0 0 0 0 0 0 0 0 0 0 0 0 0 0 0 0 0 0 0 0 0 0 0 0 0 0 0 0 0 0 89 112 116
1046 1060 621 274 226 16 0 0 170 88 0 0 0 0 0 0 0 0 0 0 0 0 0 0 0 0 0 0 0 0 0 0 0 0 0 0 5 6 72 129 122 136
961 751 380 0 0 0 0 0 295 215 0 0 0 0 0 0 0 0 0 0 0 0 0 0 0 5 0 0 0 0 8 0 0 0 0 0 10 16 14 60 75 72
835 778 322 0 0 0 0 0 54 0 0 0 0 0 0 0 0 0 0 0 0 0 0 0 0 0 0 0 0 0 46 68 0 0 0 0 0 0 0 0 10 0
917 584 131 0 0 0 0 0 0 0 0 0 0 0 0 0 0 0 0 0 0 0 0 0 0 0 0 0 0 0 0 5 0 0 0 0 0 0 0 0 0 0
916 856 368 59 0 0 0 0 0 0 0 0 0 0 0 0 0 0 0 0 0 0 0 0 0 0 0 221 360 289 169 48 0 0 0 0 0 0 0 0 0 0
892 715 304 104 11 64 212 0 0 0 0 0 0 0 0 1 0 0 0 1 0 0 0 2 4 2 298 367 453 462 358 128 0 0 0 0 0 0 0 0 0 62
954 804 320 156 0 0 64 106 302 360 276 4 6 2 78 162 0 0 0 6 7 7 5 7 174 319 383 467 541 552 453 190 0 0 0 0 0 0 0 0 82 276
957 942 376 24 4 2 6 2 447 485 472 385 9 79 268 232 0 0 16 14 32 45 10 287 344 423 513 549 469 324 110 0 0 0 0 0 0 0 0 104 292 248
924 893 258 9 52 58 37 197 538 598 610 608 464 256 281 46 0 0 0 26 66 48 45 370 462 508 382 249 166 168 142 0 67 0 0 0 0 0 59 221 111 200
824 582 0 47 130 132 123 288 639 760 786 774 714 451 311 0 21 0 0 0 20 212 402 412 260 65 37 139 212 264 216 26 0 0 0 0 0 0 0 0 0 0
751 446 0 26 125 171 245 392 774 988 1052 958 885 617 405 372 374 314 0 110 264 263 266 46 73 0 19 106 24 0 0 0 0 0 0 0 0 0 0 0 0 0